Springfield, OH

9:30 AM EST on February 25, 2017 (GMT -0500)
Springfield-Beckley Municipal

Weather History for KSGH - January, 2013

Change the Weather History Date:

Sunday, January 20, 2013

  Actual Average (KFFO) Record (KFFO)
Temperature  
Mean Temperature 30 °F -  
Max Temperature 41 °F 32 °F 60 °F (2006)
Min Temperature 20 °F 15 °F 1 °F (2008)
Degree Days  
Heating Degree Days 34    
Moisture  
Dew Point 15 °F    
Average Humidity 58    
Maximum Humidity 70    
Minimum Humidity 45    
Precipitation  
Precipitation 0.00 in - - ()
Sea Level Pressure  
Sea Level Pressure 30.12 in    
Wind  
Wind Speed 17 mph (WNW)    
Max Wind Speed 28 mph    
Max Gust Speed 38 mph    
Visibility 7 miles    
Events      
Averages and records for this station are not official NWS values.
T = Trace of Precipitation, MM = Missing Value Source: NWS Daily Summary

Daily Weather History Graph

Daily Weather History Graph

Search for Another Location

Airport or City:

Trip Planner

Search our weather history database for the weather conditions in past years. The results will help you decide how hot, cold, wet, or windy it might be!

Date:

Astronomy

Jan. 20, 2013 Rise Set
Actual Time 7:52 AM EST 5:41 PM EST
Civil Twilight 7:23 AM EST 6:10 PM EST
Nautical Twilight 6:50 AM EST 6:43 PM EST
Astronomical Twilight 6:17 AM EST 7:15 PM EST
Moon 12:41 PM EST (1/20) 2:23 AM EST (1/20)
Length of Visible Light 10h 47m
Length of Day
9h 48m
Waxing Gibbous, 66% of the Moon is Illuminated
Jan 20
Waxing Gibbous
Jan 26
Full
Feb 3
Last Quarter
Feb 10
New
Feb 17
First Quarter

Hourly Weather History & Observations

Time (EST) Temp. Windchill Dew Point Humidity Pressure Visibility Wind Dir Wind Speed Gust Speed Precip Events Conditions
12:56 AM 41.9 °F 32.8 °F 28.0 °F 58% 29.88 in 8.0 mi SW 20.7 mph 24.2 mph N/A   Clear
1:56 AM 41.9 °F 33.1 °F 30.0 °F 63% 29.88 in 7.0 mi WSW 19.6 mph 28.8 mph N/A   Clear
2:56 AM 41.9 °F 33.1 °F 32.0 °F 68% 29.92 in 7.0 mi West 19.6 mph 26.5 mph N/A   Mostly Cloudy
3:37 AM 41.0 °F 32.8 °F 32.0 °F 70% 29.93 in 7.0 mi WNW 16.1 mph 26.5 mph N/A   Overcast
3:56 AM 39.9 °F 29.7 °F 30.0 °F 68% 29.95 in 7.0 mi West 23.0 mph 35.7 mph N/A   Mostly Cloudy
4:09 AM 39.2 °F 27.8 °F 26.6 °F 61% 29.94 in 7.0 mi West 27.6 mph 38.0 mph N/A   Scattered Clouds
4:56 AM 34.9 °F 23.3 °F 19.0 °F 52% 29.98 in 8.0 mi West 21.9 mph - N/A   Clear
5:56 AM 31.1 °F 17.2 °F 14.0 °F 49% 30.01 in 7.0 mi WNW 26.5 mph 33.4 mph N/A   Clear
6:56 AM 27.1 °F 13.8 °F 12.0 °F 53% 30.06 in 7.0 mi West 19.6 mph 29.9 mph N/A   Clear
7:56 AM 25.2 °F 11.6 °F 12.0 °F 58% 30.11 in 6.0 mi WNW 18.4 mph 25.3 mph N/A   Haze
8:56 AM 24.1 °F 11.5 °F 11.1 °F 58% 30.16 in 6.0 mi NW 15.0 mph - N/A   Haze
9:56 AM 25.2 °F 13.3 °F 10.0 °F 53% 30.19 in 6.0 mi NW 13.8 mph - N/A   Haze
10:56 AM 25.2 °F 12.4 °F 10.0 °F 53% 30.24 in 6.0 mi WNW 16.1 mph - N/A   Haze
11:56 AM 25.2 °F 12.9 °F 10.0 °F 53% 30.24 in 6.0 mi West 15.0 mph 20.7 mph N/A   Haze
12:56 PM 25.2 °F 15.1 °F 10.0 °F 53% 30.22 in 6.0 mi West 10.4 mph - N/A   Haze
1:56 PM 27.1 °F 17.5 °F 10.0 °F 49% 30.20 in 6.0 mi WNW 10.4 mph - N/A   Haze
2:56 PM 28.0 °F 19.3 °F 11.1 °F 49% 30.19 in 6.0 mi West 9.2 mph - N/A   Haze
3:56 PM 28.0 °F 17.0 °F 9.1 °F 45% 30.20 in 6.0 mi NW 13.8 mph - N/A   Haze
4:56 PM 26.1 °F 16.2 °F 10.0 °F 51% 30.21 in 6.0 mi NW 10.4 mph - N/A   Haze
5:56 PM 24.1 °F 13.7 °F 10.0 °F 55% 30.23 in 7.0 mi NW 10.4 mph - N/A   Mostly Cloudy
6:56 PM 23.0 °F 14.7 °F 10.0 °F 58% 30.24 in 7.0 mi WNW 6.9 mph - N/A   Clear
7:56 PM 21.0 °F 11.4 °F 10.0 °F 63% 30.24 in 7.0 mi NW 8.1 mph - N/A   Clear
8:56 PM 20.1 °F 11.3 °F 11.1 °F 68% 30.23 in 7.0 mi NW 6.9 mph - N/A   Clear
9:56 PM 21.0 °F 12.4 °F 12.0 °F 68% 30.22 in 7.0 mi WNW 6.9 mph - N/A   Mostly Cloudy
10:56 PM 20.1 °F 10.3 °F 11.1 °F 68% 30.22 in 7.0 mi WNW 8.1 mph - N/A   Mostly Cloudy
11:56 PM 20.1 °F 10.3 °F 11.1 °F 68% 30.20 in 7.0 mi NW 8.1 mph - N/A   Overcast